Weather in Arkul

Russia / Kirov Oblast     57°16′41″N   50°02′17″E
temp.,
°C
wind,
m/s
gust,
m/s
humid.,
%
clouds,
%
prec.,
mm/h
press.,
hPa
HPBL,
m
25 may, wed
wed2500:000sse11946 0.0 100710
03:000ne009497 0.0 100810
06:00+4nw128532 0.0 1007229
09:00+8wnw226472 0.1 10071254
12:00+8wnw235882 0.3 10081156
15:00+9wsw345197 0.4 10081631
18:00+8wsw45628 0.0 1008813
21:00+3w399516 0.0 1009265
26 may, thu
thu2600:00+3wsw3688100 0.0 1009534
03:00+4w4890100 0.2 1010750
06:00+4sw41087100 0.0 1010491
09:00+7sw5873100 0.0 1011946
12:00+9sw5870100 0.6 10111368
15:00+11ssw5867100 1.4 10101522
18:00+7ssw5993100 1.6 10101064
21:00+6ssw379780 1.8 1009216
27 may, fri
fri2700:00+4s369874 0.0 1008110
03:00+4se3698100 0.0 1007135
06:00+7se41198100 0.1 1005457
09:00+7se61298100 3.2 1003479
12:00+9sse61296100 1.3 1002711
15:00+11sse6129497 2.2 1000830
18:00+12s511899 1.2 1000526
21:00+10sse4119597 1.8 1000478
28 may, sat
sat2800:00+10s5109699 0.2 1000613
03:00+9s51098100 0.8 1001589
06:00+9sw5109685 0.3 1003517
09:00+13ssw6985100 0.4 1004840
12:00+12ssw61087100 2.3 1004882
15:00+11s81692100 5.7 10031315
18:00+12ssw7149389 1.1 10031056
21:00+9sw412936 1.3 1006440
29 may, sun
sun2900:00+9sw514930 0.0 1008436
03:00+7ssw414940 0.0 1009382
06:00+10sw5128997 0.0 1011621
09:00+13sw71164100 0.0 10131223
12:00+15sw71157100 0.0 10141832
15:00+16sw61157100 0.1 10142167
18:00+14wsw5106893 0.4 1015700
21:00+10sw4138886 0.6 1017350